Location: Bonn
(50.7330°N, 7.1000°E)
Time: 13:11:15
(UTC+02:00)

Iridium 67 - Visible Passes

Search period start: 26 March 2017 00:00
Search period end: 05 April 2017 01:00
Orbit: 776 x 779 km, 86.4° (Epoch: 24 March)

Date Brightness Start Highest point End Pass type
(mag) Time Alt. Az. Time Alt. Az. Time Alt. Az.
26 Mar 7.5 05:47:10 10° SE 05:51:44 32° E 05:56:19 10° NNE visible
27 Mar 8.3 05:14:50 10° ESE 05:18:30 20° ENE 05:22:11 10° NNE visible
28 Mar 8.7 04:43:35 10° E 04:45:23 12° ENE 04:47:12 10° NE visible
28 Mar 5.8 06:19:57 10° S 06:25:09 73° E 06:30:23 10° N visible
29 Mar 6.8 05:46:49 10° SSE 05:51:44 43° E 05:56:39 10° NNE visible
30 Mar 7.7 05:14:09 10° SE 05:18:25 26° E 05:22:43 10° NNE visible
31 Mar 8.4 04:42:07 10° ESE 04:45:15 16° ENE 04:48:22 10° NE visible
31 Mar 5.5 06:20:03 10° S 06:25:15 83° W 06:30:31 10° N visible
01 Apr 6.2 05:46:39 10° SSE 05:51:46 60° E 05:56:54 10° N visible
02 Apr 7.1 05:13:41 10° SSE 05:18:23 35° E 05:23:07 10° NNE visible
03 Apr 7.9 04:41:14 10° SE 04:45:08 22° ENE 04:49:03 10° NNE visible
03 Apr 5.6 06:20:16 10° SSW 06:25:25 61° W 06:30:36 10° N visible
04 Apr 8.4 04:09:37 10° E 04:12:00 13° ENE 04:14:22 10° NE visible
04 Apr 5.7 05:46:38 10° S 05:51:50 81° E 05:57:05 10° N visible
